DH1NAI-6 Weather Reports


Display with metric or nautical units.
time (UTC)temp
F
wind
direction
speed
MPH
gust
MPH
rain 1hr
in
rain 24hr
in
rain mn
in
humidity
%
barometer
mb
20260506043841 50 31 1.0 1.0 0.00 0.03 0.00 99 1003.8
20260506042833 50 179 1.0 1.0 0.00 0.03 0.00 99 1003.6
20260506041825 50 19 3.0 3.0 0.00 0.03 0.00 99 1003.8
20260506040818 50 233 1.0 2.0 0.00 0.03 0.00 99 1003.6
20260506035809 50 312 0.0 1.0 0.04 0.02 0.00 99 1003.5
20260506034801 50 280 4.0 4.0 0.04 0.02 0.00 99 1003.5
20260506033753 50 129 1.0 2.0 0.04 0.02 0.00 99 1003.6
20260506032745 50 205 3.0 6.0 0.04 0.02 0.00 99 1003.5
20260506031737 51 193 1.0 1.0 0.00 0.01 0.00 99 1003.5
20260506030729 51 17 0.0 1.0 0.00 0.01 0.00 99 1003.5
20260506025721 51 192 1.0 2.0 0.04 0.01 0.00 99 1003.6
20260506024713 51 182 0.0 0.0 0.04 0.01 0.00 99 1003.7
20260506022657 51 178 1.0 2.0 0.04 0.01 0.00 99 1003.7
20260506021649 51 207 2.0 2.0 0.04 0.01 0.00 99 1003.6
20260506020625 51 144 1.0 1.0 0.04 0.01 0.00 99 1003.9
20260506015617 51 226 1.0 2.0 0.00 0.00 0.00 99 1003.8
20260506014613 51 156 0.0 1.0 0.00 0.00 0.00 99 1003.9
20260506013601 51 246 2.0 3.0 0.00 0.00 0.00 99 1004.0
20260506012553 51 144 0.0 0.0 0.00 0.00 0.00 99 1004.0
20260506011545 51 177 0.0 0.0 0.00 0.00 0.00 99 1004.0
20260506010537 51 104 0.0 0.0 0.00 0.00 0.00 99 1004.0
20260506005529 50 171 1.0 1.0 0.00 0.00 0.00 99 1003.9
20260506004521 51 111 1.0 2.0 0.00 0.00 0.00 99 1004.2
20260506003457 51 164 1.0 1.0 0.00 0.00 0.00 99 1004.1
20260506002449 51 120 0.0 1.0 0.00 0.00 0.00 99 1004.1
20260506001425 51 109 1.0 1.0 0.00 0.00 0.00 99 1004.2
20260506000417 51 18 2.0 2.0 0.00 0.00 0.00 99 1004.5
20260505235409 51 162 1.0 1.0 0.00 0.00 0.00 99 1004.5
20260505234401 51 166 1.0 1.0 0.00 0.00 0.00 99 1004.6
20260505233353 51 156 2.0 3.0 0.00 0.00 0.00 99 1004.5
20260505232345 51 145 0.0 1.0 0.00 0.00 0.00 99 1004.5
20260505231332 51 206 2.0 2.0 0.00 0.00 0.00 99 1004.4
20260505230313 51 173 0.0 0.0 0.00 0.00 0.00 99 1004.3
20260505225306 51 185 1.0 3.0 0.00 0.00 0.00 99 1004.3
20260505224257 51 181 0.0 1.0 0.00 0.00 0.00 99 1004.2
20260505223249 51 186 2.0 2.0 0.00 0.00 0.00 99 1004.2
20260505222225 51 253 2.0 2.0 0.00 0.00 0.00 99 1004.4
20260505221217 51 214 1.0 2.0 0.00 0.00 0.00 99 1004.3
20260505220209 51 213 3.0 4.0 0.00 0.00 0.00 99 1004.5
20260505215201 51 179 0.0 0.0 0.00 0.62 0.00 99 1004.6
20260505214153 51 184 0.0 0.0 0.00 0.62 0.00 99 1004.6
20260505213145 51 129 0.0 0.0 0.00 0.62 0.00 99 1004.6
20260505212132 51 160 1.0 1.0 0.00 0.62 0.00 99 1004.7
20260505211130 51 188 1.0 1.0 0.00 0.62 0.00 99 1004.6
20260505210121 51 171 2.0 2.0 0.00 0.62 0.00 99 1004.9
20260505205057 51 163 2.0 2.0 0.00 0.62 0.00 99 1004.7
20260505204049 51 164 1.0 1.0 0.00 0.62 0.00 99 1004.9
20260505203025 51 308 1.0 1.0 0.00 0.62 0.00 99 1004.8
20260505202017 51 156 0.0 1.0 0.00 0.62 0.00 99 1004.9
20260505201009 50 167 0.0 0.0 0.00 0.62 0.00 99 1004.8
20260505200001 51 186 0.0 1.0 0.04 0.62 0.00 99 1004.4
20260505194953 51 168 0.0 0.0 0.04 0.62 0.00 99 1004.3
20260505193946 51 162 0.0 0.0 0.04 0.62 0.00 99 1004.2
20260505192932 51 176 0.0 0.0 0.04 0.61 0.00 99 1004.0
20260505191929 51 163 0.0 0.0 0.04 0.60 0.00 99 1004.3
20260505190921 51 256 0.0 0.0 0.04 0.58 0.00 99 1004.6
20260505185857 51 98 2.0 2.0 0.04 0.57 0.00 99 1005.0
20260505184849 51 173 0.0 1.0 0.04 0.54 0.00 99 1005.0
20260505183825 52 201 4.0 4.0 0.04 0.50 0.00 99 1004.9
20260505182817 52 188 3.0 4.0 0.04 0.46 0.00 99 1005.3
20260505181809 52 24 2.0 3.0 0.04 0.39 0.00 99 1005.3
20260505180804 52 246 2.0 2.0 0.04 0.36 0.00 99 1005.3
20260505175753 53 260 1.0 2.0 0.04 0.32 0.00 98 1005.3
20260505174745 56 113 7.0 12.0 0.04 0.10 0.00 93 1005.1
20260505173732 58 125 2.0 2.0 0.00 0.06 0.00 88 1003.9
20260505172729 58 132 1.0 2.0 0.00 0.06 0.00 87 1003.9
20260505171721 59 106 1.0 1.0 0.00 0.06 0.00 88 1003.8
20260505170657 59 78 1.0 1.0 0.00 0.06 0.00 88 1003.9
20260505165649 60 140 3.0 4.0 0.00 0.06 0.00 86 1003.9
20260505164625 60 109 2.0 3.0 0.00 0.06 0.00 86 1004.0
20260505163617 60 140 1.0 1.0 0.00 0.06 0.00 87 1004.1
20260505162609 60 156 1.0 1.0 0.00 0.06 0.00 88 1004.1
20260505161601 60 149 0.0 0.0 0.00 0.06 0.00 93 1004.4
20260505160553 60 163 0.0 1.0 0.00 0.06 0.00 92 1004.6
20260505152521 59 125 2.0 3.0 0.04 0.06 0.00 92 1004.6
20260505151457 59 191 0.0 0.0 0.04 0.06 0.00 92 1004.8
20260505150449 60 163 0.0 0.0 0.00 0.05 0.00 91 1004.9
20260505140345 64 109 2.0 2.0 0.00 0.03 0.00 75 1005.1
20260505124242 67 102 3.0 3.0 0.00 0.03 0.00 72 1005.9
20260505123233 66 186 2.0 3.0 0.00 0.03 0.00 72 1006.0
20260505122226 67 189 3.0 7.0 0.00 0.03 0.00 73 1005.9
20260505121219 66 335 3.0 4.0 0.00 0.03 0.00 73 1006.0
20260505120153 64 288 2.0 4.0 0.00 0.03 0.00 76 1006.2
20260505115146 64 313 2.0 3.0 0.00 0.03 0.00 73 1006.2
20260505114132 65 327 4.0 4.0 0.00 0.03 0.00 71 1006.3
20260505113113 65 156 2.0 2.0 0.00 0.03 0.00 67 1006.2
20260505112105 65 211 2.0 3.0 0.00 0.03 0.00 68 1006.2
20260505111057 66 135 0.0 1.0 0.00 0.03 0.00 66 1006.1
20260505102002 66 145 2.0 3.0 0.00 0.03 0.00 71 1006.6
20260505100953 65 166 3.0 4.0 0.00 0.03 0.00 69 1006.8
20260505095946 67 139 3.0 3.0 0.00 0.03 0.00 72 1007.0
20260505094932 66 137 4.0 4.0 0.00 0.03 0.00 73 1006.8
20260505093930 65 206 1.0 1.0 0.00 0.03 0.00 73 1007.0
20260505092921 64 143 2.0 3.0 0.00 0.03 0.00 77 1007.1
20260505091857 64 164 4.0 4.0 0.00 0.03 0.00 78 1007.0
20260505090833 64 181 2.0 3.0 0.00 0.03 0.00 81 1007.2
20260505085825 63 154 1.0 2.0 0.00 0.03 0.00 82 1007.2
20260505084818 63 137 3.0 3.0 0.00 0.03 0.00 80 1007.4
20260505083809 62 149 2.0 2.0 0.00 0.03 0.00 85 1007.4
20260505082802 61 36 0.0 0.0 0.00 0.03 0.00 85 1007.3
20260505081753 59 136 0.0 1.0 0.00 0.03 0.00 88 1007.4
20260505080746 58 151 1.0 1.0 0.00 0.03 0.00 89 1007.5
20260505075732 58 151 2.0 2.0 0.00 0.03 0.00 90 1007.7
20260505074730 58 170 3.0 3.0 0.00 0.03 0.00 90 1007.5
20260505073721 57 124 3.0 3.0 0.00 0.03 0.00 91 1007.6
20260505072657 57 122 1.0 1.0 0.00 0.03 0.00 93 1007.7
20260505071633 56 161 0.0 0.0 0.00 0.03 0.00 95 1007.6
20260505070625 56 140 2.0 2.0 0.00 0.03 0.00 95 1007.4
20260505065618 55 164 1.0 2.0 0.00 0.03 0.00 96 1007.5
20260505064609 55 149 3.0 3.0 0.00 0.03 0.00 97 1007.6
20260505063602 54 158 3.0 3.0 0.00 0.03 0.00 98 1007.6
20260505062558 53 160 1.0 2.0 0.00 0.03 0.00 99 1007.5
20260505061546 53 177 1.0 2.0 0.00 0.03 0.00 99 1007.7
20260505060532 53 146 1.0 1.0 0.00 0.03 0.00 99 1007.7
20260505055530 52 157 1.0 2.0 0.00 0.03 0.00 99 1007.9
20260505054521 52 168 0.0 1.0 0.00 0.03 0.00 99 1007.8
20260505053457 52 163 1.0 1.0 0.00 0.03 0.00 99 1007.6
20260505052433 52 166 1.0 1.0 0.00 0.03 0.00 99 1007.8
20260505051425 52 152 3.0 4.0 0.00 0.03 0.00 99 1007.6
20260505050418 52 148 2.0 3.0 0.00 0.03 0.00 99 1007.7